This demonstration page uses our WeatherBlox Daily Observations layout. Learn more.

Left ArrowRight Arrow

34.74481, -87.66753

Hourly Observations for March 16, 2022

Temp ( °F °C ) Dew Point ( °F °C ) Humidity (%) Winds ( mph kmh ) Pressure ( in mb ) Visibility ( mi km ) Precip ( " mm )
12:04 am 00:04 Cloudy 57 13.9 54 12.2 90 90 ENE 13 20 30.01 1016 10 16 0.00 0.00
12:37 am 00:37 Cloudy 58 14.4 54 12.2 87 87 ENE 14 22 29.99 1016 10 16 0.00 0.00
12:53 am 00:53 Cloudy 57 13.9 54 12.2 90 90 E 9 15 30.00 1016 10 16 0.00 0.00
1:20 am 01:20 Cloudy 57 13.9 54 12.2 90 90 E 10 17 30.00 1016 10 16 0.00 0.00
1:53 am 01:53 Cloudy 57 13.9 54 12.2 90 90 ENE 7 11 29.98 1015 10 16 0.00 0.00
2:53 am 02:53 Cloudy 57 13.9 54 12.2 90 90 ENE 7 11 29.97 1015 10 16 0.00 0.00
3:53 am 03:53 Cloudy 57 13.9 54 12.2 90 90 E 8 13 29.94 1014 10 16 0.00 0.00
4:53 am 04:53 Cloudy 57 13.9 54 12.2 90 90 ENE 7 11 29.95 1014 10 16 0.00 0.00
5:38 am 05:38 Cloudy 57 13.9 54 12.2 90 90 ENE 7 11 29.96 1015 10 16 0.00 0.00
5:53 am 05:53 Cloudy 57 13.9 54 12.2 90 90 ENE 7 11 29.96 1015 10 16 0.00 0.00
6:53 am 06:53 Mostly Cloudy 56 13.3 53 11.7 90 90 NE 9 15 29.96 1015 10 16 0.00 0.00
7:53 am 07:53 Sunny 57 13.9 54 12.2 90 90 NE 8 13 29.96 1015 10 16 0.00 0.00
8:29 am 08:29 Mostly Cloudy 57 13.9 54 12.2 90 90 SE 5 7 29.98 1015 10 16 0.00 0.00
8:53 am 08:53 Cloudy 58 14.4 54 12.2 87 87 ESE 5 7 29.97 1015 10 16 0.00 0.00
9:53 am 09:53 Cloudy 59 15 55 12.8 87 87 E 5 7 29.98 1015 10 16 0.00 0.00
10:08 am 10:08 Cloudy 59 15 55 12.8 87 87 E 7 11 29.99 1015 10 16 0.00 0.00
10:32 am 10:32 Cloudy 60 15.6 55 12.8 84 84 ESE 8 13 30.00 1016 10 16 0.00 0.00
10:53 am 10:53 Cloudy 61 16.1 55 12.8 81 81 E 9 15 29.99 1016 10 16 0.00 0.00
11:21 am 11:21 Cloudy 62 16.7 55 12.8 78 78 ESE 9 15 29.98 1015 10 16 0.00 0.00
11:53 am 11:53 Cloudy 63 17.2 55 12.8 76 76 E 6 9 29.98 1015 10 16 0.00 0.00
12:53 pm 12:53 Cloudy 63 17.2 56 13.3 78 78 N 5 7 29.96 1015 10 16 0.00 0.00
1:25 pm 13:25 Cloudy 64 17.8 56 13.3 75 75 NNE 5 7 29.95 1014 10 16 0.00 0.00
1:53 pm 13:53 Cloudy 65 18.3 55 12.8 70 70 NNW 3 6 29.93 1014 10 16 0.00 0.00
2:53 pm 14:53 Partly Cloudy 68 20 55 12.8 63 63 undefined N/A 29.90 1012 10 16 0.00 0.00
3:53 pm 15:53 Cloudy 67 19.4 54 12.2 63 63 NNE 6 9 29.89 1012 10 16 0.00 0.00
4:53 pm 16:53 Partly Cloudy 67 19.4 55 12.8 66 66 NE 5 7 29.88 1012 10 16 0.00 0.00
5:53 pm 17:53 Mostly Sunny 65 18.3 54 12.2 68 68 ENE 3 6 29.88 1012 10 16 0.00 0.00
6:53 pm 18:53 Cloudy 65 18.3 54 12.2 68 68 NE 5 7 29.90 1013 10 16 0.00 0.00
7:53 pm 19:53 Clear 58 14.4 53 11.7 84 84 E 3 6 29.91 1013 10 16 0.00 0.00
8:53 pm 20:53 Clear 58 14.4 53 11.7 84 84 Calm 29.92 1013 10 16 0.00 0.00
9:53 pm 21:53 Clear 55 12.8 51 10.6 87 87 Calm 29.93 1014 10 16 0.00 0.00
10:53 pm 22:53 Clear 53 11.7 51 10.6 93 93 Calm 29.93 1013 10 16 0.00 0.00
11:53 pm 23:53 Mostly Clear with Mist and Fog 53 11.7 50 10 89 89 Calm 29.93 1013 3 4 0.00 0.00

Powered by AerisWeather